[[{"header":{"parameterUnit":"m.s-1","parameterCategory":1,"la1":30.2991,"la2":30.254,"lo1":-89.0895,"lo2":-89.0444,"dy":0.0017,"dx":0.0017,"nx":28,"ny":28,"refTime":"2024-08-15T03:00:00:Z","depth":0,"parameterNumber":2,"parameterNumberName":"U-component_of_WINDS"},"data":[0,0,0,0,0,0,0,0,0,0,0,0,0,0,0,0,0,0,0,0,0,0,0,0,0,0,0,0,0,0,0,0,0,0,0,0,0,0,0,0,0,0,0,0,0,0,0,0,0,0,0,0,0,0,0,0,0,0,-1.4667,-1.4668,0,-1.4841,-1.4843,-1.4845,-1.4908,-1.4908,-1.4907,-1.4907,-1.5089,-1.5094,-1.5099,0,0,0,0,0,0,0,0,0,0,0,0,0,-1.4394,-1.4399,-1.4666,-1.4668,-1.4671,-1.4841,-1.4843,-1.4846,-1.4909,-1.4908,-1.4907,-1.4906,-1.5087,-1.5093,-1.51,0,0,0,0,0,0,0,0,0,0,0,0,0,-1.4535,-1.44,-1.4666,-1.4722,-1.4729,-1.484,-1.4843,-1.4846,-1.4909,-1.4908,-1.4907,-1.4906,-1.5085,-1.5093,-1.5101,-1.5169,0,0,-1.5126,-1.5129,0,0,0,0,0,0,0,0,-1.4527,-1.4545,-1.4712,-1.4719,-1.4727,-1.4852,-1.4814,-1.4955,-1.4909,-1.4841,-1.4907,-1.4906,-1.5011,-1.5025,-1.506,-1.5178,-1.5186,-1.5126,-1.5131,-1.5135,-1.5137,0,0,0,0,0,0,0,-1.4517,-1.4538,-1.4736,-1.4714,-1.4723,-1.4741,-1.476,-1.4841,-1.4929,-1.4847,-1.4852,-1.4871,-1.5015,-1.5052,-1.5065,-1.5188,-1.5126,-1.5133,-1.5138,-1.5141,-1.5376,-1.5377,0,0,0,0,0,0,-1.4497,-1.4529,-1.473,-1.4741,-1.4622,-1.4747,-1.4768,-1.4813,-1.4928,-1.4945,-1.4872,-1.4873,-1.5039,-1.5055,-1.5071,-1.5162,-1.5135,-1.5142,-1.5147,-1.5375,-1.5376,-1.5378,0,0,0,0,0,0,-1.4491,-1.4514,-1.4723,-1.4637,-1.4664,-1.4753,-1.4802,-1.4817,-1.4854,-1.4947,-1.4964,-1.4893,-1.5038,-1.506,-1.5145,-1.5169,-1.5146,-1.5153,-1.5373,-1.5375,-1.5377,-1.5342,0,0,0,0,0,0,-1.4483,-1.4512,-1.4537,-1.4636,-1.4669,-1.4792,-1.4804,-1.4821,-1.4867,-1.4871,-1.4972,-1.4988,-1.5039,-1.5133,-1.5153,-1.518,-1.516,-1.5371,-1.5374,-1.5377,-1.5341,-1.5342,-1.5343,0,0,0,0,0,-1.4473,-1.452,-1.4538,-1.4562,-1.4702,-1.4793,-1.4812,-1.487,-1.4869,-1.4897,-1.4957,-1.4984,-1.5163,-1.5141,-1.5165,-1.5194,-1.537,-1.5373,-1.5376,-1.5341,-1.5342,-1.5343,0,0,0,0,0,0,-1.4421,-1.4534,-1.4555,-1.4635,-1.4704,-1.4804,-1.484,-1.4869,-1.494,-1.4941,-1.5011,-1.5033,-1.5114,-1.5163,-1.5136,-1.5269,-1.5269,-1.5277,-1.5233,-1.5236,-1.5237,-1.5223,-1.5166,0,0,0,0,0,-1.4419,-1.4482,-1.4578,-1.4639,-1.4673,-1.475,-1.4792,-1.4831,-1.4906,-1.4936,-1.5002,-1.5075,-1.5148,-1.5195,-1.5267,-1.5349,-1.5373,-1.5381,-1.5382,-1.5383,-1.5389,-1.5439,-1.5444,-1.5388,-1.5388,-1.5388,0,0,-1.4415,-1.4485,-1.452,-1.4631,-1.4689,-1.4755,-1.4774,-1.4843,-1.4893,-1.4946,-1.5031,-1.5083,-1.517,-1.5254,-1.5295,-1.5298,-1.541,-1.5386,-1.5386,-1.5392,-1.5443,-1.5448,-1.5453,-1.539,-1.539,-1.5389,0,0,-1.4442,-1.45,-1.4559,-1.4617,-1.4705,-1.4757,-1.4771,-1.4867,-1.4904,-1.499,-1.5032,-1.5095,-1.5218,-1.5279,-1.5326,-1.538,-1.5409,-1.5402,-1.5407,-1.5455,-1.546,-1.5464,-1.5486,-1.5492,-1.5408,-1.5407,-1.5407,0,-1.4427,-1.4526,-1.4586,-1.4653,-1.4702,-1.4753,-1.4816,-1.487,-1.4977,-1.5011,-1.5012,-1.517,-1.5232,-1.5333,-1.5347,-1.5382,-1.5403,-1.539,-1.5454,-1.5459,-1.5464,-1.5485,-1.5493,-1.5406,-1.5406,-1.5406,-1.5407,0,-1.4505,-1.4573,-1.4611,-1.4712,-1.4766,-1.483,-1.4902,-1.495,-1.4985,-1.5037,-1.5127,-1.5203,-1.5293,-1.532,-1.5355,-1.5428,-1.5427,-1.544,-1.5442,-1.5467,-1.5488,-1.5497,-1.5404,-1.5405,-1.5405,-1.5405,0,0,-1.4502,-1.4638,-1.4651,-1.4699,-1.4801,-1.4857,-1.4925,-1.5013,-1.5053,-1.5126,-1.5187,-1.5292,-1.5306,-1.536,-1.5402,-1.5445,-1.5486,-1.5454,-1.5457,-1.5458,-1.5574,-1.5564,-1.5572,-1.5506,-1.5508,-1.5509,-1.5568,0,-1.4544,-1.4666,-1.4723,-1.4821,-1.4887,-1.4939,-1.4999,-1.5069,-1.5121,-1.5187,-1.5245,-1.5319,-1.5331,-1.5364,-1.5408,-1.5471,-1.551,-1.5468,-1.5565,-1.5568,-1.5542,-1.5583,-1.5571,-1.5622,-1.5576,-1.5577,-1.5578,0,-1.4608,-1.4681,-1.4784,-1.4882,-1.4912,-1.4964,-1.5051,-1.5112,-1.5195,-1.523,-1.5291,-1.5333,-1.541,-1.5406,-1.5515,-1.5484,-1.5528,-1.5566,-1.5569,-1.5581,-1.5574,-1.5596,-1.564,-1.5648,-1.5592,-1.5591,-1.559,0,-1.4598,-1.4722,-1.4801,-1.4841,-1.4955,-1.4992,-1.5042,-1.5123,-1.5173,-1.525,-1.5284,-1.5368,-1.5415,-1.5481,-1.5546,-1.5537,-1.5649,-1.565,-1.5682,-1.568,-1.5703,-1.5701,-1.5755,-1.573,-1.5729,-1.5729,-1.5729,0,-1.4639,-1.4701,-1.4798,-1.4847,-1.4919,-1.4987,-1.5057,-1.5111,-1.5184,-1.5247,-1.5297,-1.5355,-1.5436,-1.5505,-1.5557,-1.564,-1.5661,-1.5693,-1.5706,-1.5689,-1.5685,-1.5718,-1.5717,-1.5731,-1.5731,-1.5731,-1.573,0,-1.464,-1.4707,-1.4797,-1.4898,-1.4926,-1.4975,-1.5063,-1.5114,-1.517,-1.5248,-1.527,-1.5358,-1.5442,-1.5513,-1.5624,-1.5659,-1.5746,-1.5761,-1.5717,-1.5724,-1.5753,-1.5749,-1.5831,-1.5846,-1.5809,-1.5809,-1.581,0,-1.4661,-1.471,-1.4817,-1.4862,-1.4911,-1.4982,-1.5034,-1.5104,-1.5156,-1.5256,-1.5295,-1.5383,-1.5456,-1.5589,-1.5664,-1.575,-1.5768,-1.5791,-1.5781,-1.5763,-1.577,-1.5766,-1.5773,-1.5791,-1.5791,-1.5791,-1.5791,0,-1.4694,-1.4725,-1.4796,-1.488,-1.494,-1.501,-1.5082,-1.5116,-1.52,-1.5256,-1.5343,-1.54,-1.5514,-1.5601,-1.5696,-1.575,-1.5786,-1.5794,-1.5806,-1.5789,-1.5762,-1.5779,-1.572,-1.5791,-1.5791,-1.5791,-1.5791,-1.5791,-1.4707,-1.4754,-1.4837,-1.4916,-1.4977,-1.5043,-1.5096,-1.5159,-1.5232,-1.5329,-1.5367,-1.5455,-1.5541,-1.5672,-1.5726,-1.5799,-1.5804,-1.5821,-1.5825,-1.5829,-1.5827,-1.575,-1.5816,-1.5816,-1.5816,-1.5816,-1.5816,0,-1.4743,-1.48,-1.4871,-1.4969,-1.5032,-1.5059,-1.5141,-1.5193,-1.527,-1.5345,-1.5418,-1.5519,-1.5605,-1.5687,-1.5778,-1.582,-1.5839,-1.5841,-1.5839,-1.5852,-1.5816,-1.5797,-1.5825,-1.5825,-1.5825,-1.5825,-1.5825,-1.5825,-1.4769,-1.4851,-1.4892,-1.5006,-1.5064,-1.515,-1.5194,-1.5257,-1.5318,-1.5428,-1.55,-1.5553,-1.5633,-1.573,-1.5811,-1.5834,-1.5865,-1.5864,-1.589,-1.5856,-1.5854,-1.5852,-1.5835,-1.587,-1.587,-1.592,-1.5921,-1.5921]},{"header":{"parameterUnit":"m.s-1","parameterCategory":1,"la1":30.2991,"la2":30.254,"lo1":-89.0895,"lo2":-89.0444,"dy":0.0017,"dx":0.0017,"nx":28,"ny":28,"refTime":"2024-08-15T03:00:00:Z","depth":0,"parameterNumber":3,"parameterNumberName":"V-component_of_WINDS"},"data":[0,0,0,0,0,0,0,0,0,0,0,0,0,0,0,0,0,0,0,0,0,0,0,0,0,0,0,0,0,0,0,0,0,0,0,0,0,0,0,0,0,0,0,0,0,0,0,0,0,0,0,0,0,0,0,0,0,0,1.2147,1.2143,0,1.1751,1.1746,1.1742,1.158,1.1581,1.1582,1.1583,1.1164,1.1152,1.114,0,0,0,0,0,0,0,0,0,0,0,0,0,1.2757,1.2746,1.2148,1.2143,1.2138,1.1751,1.1746,1.174,1.158,1.1581,1.1582,1.1583,1.1168,1.1153,1.1139,0,0,0,0,0,0,0,0,0,0,0,0,0,1.2439,1.2743,1.2148,1.2011,1.1995,1.1753,1.1746,1.1739,1.158,1.1581,1.1583,1.1584,1.1172,1.1155,1.1137,1.0997,0,0,1.1082,1.1074,0,0,0,0,0,0,0,0,1.2457,1.2417,1.2036,1.202,1.2002,1.1717,1.1807,1.149,1.1579,1.1737,1.1583,1.1585,1.1346,1.1313,1.1235,1.0977,1.096,1.108,1.1069,1.1061,1.1056,0,0,0,0,0,0,0,1.248,1.2433,1.199,1.2031,1.201,1.1967,1.1923,1.1746,1.1538,1.1723,1.1711,1.1667,1.1336,1.1253,1.1224,1.0953,1.1081,1.1065,1.1053,1.1046,1.0563,1.0561,0,0,0,0,0,0,1.2526,1.2452,1.2003,1.1978,1.2238,1.1955,1.1906,1.1806,1.1539,1.15,1.1666,1.1661,1.1283,1.1246,1.1209,1.1028,1.1062,1.1045,1.1034,1.0565,1.0563,1.0561,0,0,0,0,0,0,1.2539,1.2487,1.2019,1.2212,1.2149,1.1943,1.1832,1.1798,1.1715,1.1496,1.1457,1.162,1.1283,1.1234,1.1052,1.1011,1.1036,1.102,1.0568,1.0565,1.0562,1.0665,0,0,0,0,0,0,1.2558,1.2493,1.2439,1.2212,1.2139,1.1871,1.183,1.1789,1.1686,1.1675,1.1442,1.1405,1.128,1.108,1.1035,1.0987,1.1006,1.057,1.0566,1.0563,1.0664,1.0666,1.0668,0,0,0,0,0,1.258,1.248,1.2437,1.2384,1.2068,1.1869,1.1827,1.1689,1.1683,1.1626,1.1487,1.1413,1.1025,1.1063,1.101,1.0956,1.0572,1.0567,1.0563,1.0663,1.0666,1.0668,0,0,0,0,0,0,1.2701,1.2448,1.2397,1.2222,1.207,1.1843,1.1765,1.1696,1.1537,1.1533,1.1366,1.1314,1.1147,1.1033,1.1081,1.0808,1.0793,1.0778,1.0887,1.0887,1.0889,1.0917,1.0991,0,0,0,0,0,1.271,1.2573,1.2357,1.2223,1.215,1.1973,1.188,1.1789,1.1621,1.1554,1.1401,1.1238,1.108,1.0978,1.082,1.065,1.0596,1.0587,1.0589,1.0591,1.0578,1.048,1.0474,1.0546,1.0546,1.0546,0,0,1.272,1.2566,1.2488,1.2244,1.2114,1.1974,1.1918,1.177,1.1663,1.1529,1.1349,1.1233,1.104,1.0865,1.0779,1.0765,1.0548,1.0586,1.0589,1.0574,1.0475,1.0468,1.0463,1.0543,1.0544,1.0544,0,0,1.2669,1.254,1.2415,1.2289,1.2097,1.198,1.1952,1.1737,1.1655,1.1474,1.1372,1.1241,1.0972,1.084,1.0737,1.0646,1.0571,1.0599,1.0605,1.0512,1.0506,1.05,1.0465,1.0455,1.0588,1.0588,1.0589,0,1.2705,1.2493,1.2358,1.2217,1.2113,1.1994,1.1865,1.1748,1.1512,1.1441,1.1431,1.1094,1.0956,1.0748,1.0727,1.0649,1.0608,1.0621,1.0519,1.0511,1.0503,1.0468,1.0456,1.0593,1.0592,1.0592,1.0591,0,1.2547,1.2402,1.2324,1.2106,1.1993,1.1859,1.1702,1.1604,1.1525,1.141,1.1227,1.1059,1.0866,1.0811,1.0729,1.0592,1.059,1.0552,1.0531,1.0503,1.0468,1.0453,1.0599,1.0598,1.0596,1.0595,0,0,1.2551,1.2269,1.2241,1.2143,1.1926,1.1809,1.1671,1.1488,1.1407,1.1251,1.1128,1.0908,1.0874,1.0758,1.0661,1.0581,1.0518,1.0552,1.0545,1.0549,1.0356,1.0383,1.037,1.0472,1.0468,1.0466,1.0371,0,1.2468,1.2219,1.2097,1.19,1.1763,1.1653,1.1533,1.1386,1.1277,1.1143,1.1021,1.0867,1.0834,1.0764,1.068,1.0544,1.0476,1.055,1.0352,1.0346,1.0399,1.0351,1.0377,1.0295,1.0357,1.0354,1.0352,0,1.2334,1.2187,1.1978,1.1782,1.172,1.1615,1.1439,1.1315,1.1147,1.1073,1.0949,1.0857,1.0706,1.0704,1.0492,1.0545,1.0458,1.038,1.0373,1.0344,1.0344,1.0317,1.0266,1.0252,1.0329,1.0331,1.0333,0,1.2356,1.2104,1.1947,1.1867,1.1635,1.1563,1.1463,1.1297,1.1196,1.1043,1.0976,1.0806,1.0711,1.0581,1.0446,1.0457,1.0247,1.0233,1.0178,1.0182,1.0132,1.0136,1.0063,1.0086,1.0086,1.0087,1.0087,0,1.2272,1.2148,1.1954,1.1857,1.1715,1.1578,1.144,1.133,1.1186,1.1063,1.0958,1.0845,1.0676,1.0541,1.0435,1.0275,1.0234,1.0168,1.014,1.0174,1.0182,1.0109,1.011,1.0083,1.0084,1.0085,1.0085,0,1.2267,1.2134,1.1955,1.1755,1.1701,1.1605,1.1431,1.1332,1.1223,1.107,1.1026,1.0851,1.0688,1.0543,1.0324,1.0253,1.0089,1.0057,1.0147,1.0131,1.0084,1.0089,0.9956,0.9931,0.9977,0.9977,0.9977,0,1.222,1.2123,1.1915,1.1829,1.1732,1.1593,1.1493,1.1356,1.1254,1.1061,1.0984,1.0816,1.0672,1.0417,1.0268,1.0102,1.0062,1.0028,1.0035,1.0074,1.0057,1.0063,1.0052,1.0026,1.0027,1.0027,1.0027,0,1.2149,1.209,1.1951,1.1791,1.1676,1.1541,1.1403,1.1338,1.1175,1.1067,1.0902,1.0793,1.0575,1.0407,1.0227,1.0119,1.0044,1.0028,1.0005,1.0036,1.0091,1.0058,1.0145,1.0029,1.0029,1.0029,1.0028,1.0028,1.2117,1.2027,1.1869,1.1719,1.1603,1.1479,1.1377,1.1258,1.112,1.0935,1.0863,1.0696,1.0534,1.0285,1.0179,1.0044,1.003,0.9999,0.9989,0.9982,0.9988,1.012,1.0011,1.0011,1.0011,1.0011,1.001,0,1.2037,1.1933,1.1798,1.1612,1.1495,1.1445,1.1291,1.1195,1.1051,1.0909,1.0774,1.0586,1.0425,1.0269,1.0099,1.0022,0.9983,0.9982,0.9982,0.9959,1.0011,1.0046,1.0016,1.0016,1.0016,1.0016,1.0016,1.0016,1.1982,1.1827,1.1751,1.1538,1.1432,1.1272,1.1189,1.1073,1.096,1.0757,1.0626,1.0528,1.0379,1.02,1.0051,1.0008,0.9949,0.9956,0.9904,0.9954,0.9955,0.9956,0.9987,0.9945,0.9945,0.9862,0.9861,0.986]}]]